QPF
0.01 0.02 0.03 0.02 0.02 0.03 0.03 0.02 0.03 0.03 0.03 0.04 0.06 0.04 0.01 0.02 0.04 0.02 0.02 0.01 0.01 0.02 0.02 0.02 0.02 0.04 0.04 0.06 0.07 0.06 0.05 0.05 0.04 0.03 0.02 0.01 0.01 0.01 0.01 0.01 0.01 0.00 0.00 0.00
0.01 0.01 0.02 0.02 0.02 0.03 0.03 0.03 0.03 0.02 0.03 0.04 0.04 0.03 0.01 0.01 0.03 0.01 0.01 0.01 0.01 0.01 0.02 0.02 0.02 0.02 0.03 0.05 0.06 0.05 0.04 0.04 0.05 0.04 0.03 0.02 0.01 0.01 0.01 0.00 0.00 0.00 0.00 0.00
0.02 0.01 0.03 0.05 0.05 0.04 0.03 0.04 0.03 0.03 0.03 0.03 0.02 0.02 0.02 0.01 0.01 0.01 0.01 0.01 0.01 0.01 0.01 0.02 0.03 0.03 0.03 0.04 0.04 0.04 0.04 0.04 0.03 0.03 0.03 0.03 0.02 0.01 0.01 0.00 0.00 0.00 0.00 0.00
0.04 0.04 0.07 0.08 0.06 0.03 0.03 0.06 0.03 0.02 0.02 0.02 0.02 0.02 0.02 0.01 0.01 0.00 0.01 0.01 0.01 0.01 0.01 0.02 0.03 0.03 0.04 0.04 0.03 0.03 0.03 0.03 0.03 0.02 0.03 0.02 0.02 0.01 0.01 0.00 0.00 0.00 0.00 0.00
0.06 0.06 0.07 0.07 0.06 0.04 0.05 0.14 0.07 0.03 0.03 0.02 0.01 0.01 0.01 0.01 0.00 0.00 0.01 0.01 0.02 0.02 0.02 0.02 0.03 0.03 0.04 0.04 0.04 0.03 0.02 0.02 0.02 0.02 0.02 0.02 0.02 0.02 0.01 0.01 0.00 0.00 0.00 0.00
0.08 0.08 0.10 0.10 0.05 0.04 0.05 0.07 0.05 0.02 0.02 0.02 0.00 0.01 0.01 0.01 0.00 0.01 0.01 0.02 0.02 0.02 0.04 0.04 0.03 0.03 0.03 0.03 0.03 0.03 0.02 0.01 0.02 0.02 0.03 0.03 0.02 0.02 0.02 0.01 0.01 0.00 0.00 0.00
0.10 0.13 0.18 0.10 0.04 0.03 0.05 0.04 0.03 0.02 0.02 0.02 0.01 0.01 0.00 0.00 0.01 0.01 0.01 0.02 0.02 0.03 0.04 0.05 0.04 0.03 0.03 0.03 0.03 0.02 0.02 0.01 0.02 0.02 0.02 0.03 0.03 0.03 0.02 0.02 0.01 0.00 0.00 0.00
0.12 0.15 0.16 0.05 0.03 0.02 0.02 0.01 0.01 0.01 0.02 0.03 0.01 0.01 0.00 0.00 0.01 0.01 0.02 0.02 0.02 0.03 0.04 0.04 0.03 0.03 0.02 0.02 0.03 0.03 0.03 0.03 0.03 0.03 0.03 0.03 0.02 0.02 0.02 0.01 0.01 0.00 0.00 0.00
0.15 0.11 0.06 0.02 0.02 0.01 0.01 0.00 0.00 0.01 0.03 0.03 0.01 0.01 0.00 0.00 0.00 0.01 0.02 0.02 0.02 0.03 0.03 0.04 0.03 0.02 0.02 0.02 0.02 0.03 0.03 0.03 0.03 0.03 0.03 0.03 0.02 0.02 0.01 0.01 0.01 0.01 0.00 0.00
0.14 0.08 0.04 0.03 0.01 0.01 0.00 0.00 0.00 0.03 0.05 0.02 0.01 0.01 0.01 0.00 0.00 0.01 0.01 0.02 0.02 0.02 0.03 0.03 0.02 0.02 0.01 0.01 0.02 0.02 0.02 0.02 0.02 0.02 0.02 0.02 0.02 0.02 0.01 0.01 0.01 0.01 0.00 0.00
0.10 0.08 0.05 0.03 0.01 0.00 0.00 0.00 0.01 0.03 0.03 0.02 0.02 0.02 0.01 0.00 0.01 0.01 0.01 0.02 0.02 0.02 0.01 0.01 0.01 0.01 0.01 0.02 0.02 0.02 0.02 0.02 0.02 0.02 0.01 0.01 0.01 0.00 0.00 0.00 0.00 0.00 0.00 0.00
0.09 0.06 0.06 0.04 0.01 0.00 0.00 0.00 0.01 0.01 0.02 0.03 0.03 0.01 0.01 0.01 0.01 0.01 0.02 0.02 0.02 0.02 0.02 0.02 0.02 0.02 0.02 0.02 0.01 0.01 0.02 0.02 0.01 0.01 0.00 0.00 0.00 0.00 0.00 0.00 0.00 0.00 0.00 0.00
0.07 0.05 0.04 0.02 0.01 0.00 0.00 0.00 0.00 0.00 0.00 0.01 0.02 0.01 0.01 0.01 0.01 0.02 0.03 0.02 0.03 0.03 0.04 0.03 0.01 0.01 0.01 0.01 0.01 0.01 0.01 0.01 0.01 0.00 0.00 0.00 0.00 0.00 0.00 0.00 0.00 0.00 0.00 0.00
0.04 0.03 0.03 0.01 0.00 0.00 0.00 0.00 0.00 0.00 0.00 0.00 0.01 0.00 0.00 0.00 0.01 0.02 0.02 0.02 0.02 0.02 0.02 0.03 0.01 0.01 0.00 0.00 0.00 0.00 0.00 0.00 0.00 0.00 0.00 0.00 0.00 0.00 0.00 0.00 0.00 0.00 0.00 0.00
0.02 0.02 0.02 0.01 0.00 0.00 0.00 0.00 0.00 0.00 0.00 0.00 0.00 0.00 0.01 0.01 0.01 0.02 0.02 0.01 0.01 0.01 0.01 0.01 0.01 0.00 0.00 0.00 0.00 0.00 0.00 0.00 0.00 0.00 0.00 0.00 0.00 0.00 0.00 0.00 0.00 0.00 0.00 0.00
0.04 0.02 0.01 0.00 0.00 0.00 0.00 0.00 0.00 0.00 0.00 0.00 0.00 0.00 0.01 0.01 0.01 0.01 0.01 0.01 0.01 0.01 0.01 0.01 0.01 0.00 0.00 0.00 0.00 0.00 0.00 0.00 0.00 0.00 0.00 0.00 0.00 0.00 0.00 0.00 0.00 0.00 0.00 0.00
0.03 0.02 0.01 0.00 0.00 0.00 0.00 0.00 0.00 0.00 0.00 0.00 0.00 0.00 0.00 0.00 0.01 0.01 0.01 0.01 0.02 0.02 0.01 0.01 0.01 0.00 0.00 0.00 0.00 0.00 0.00 0.00 0.00 0.00 0.00 0.00 0.00 0.00 0.00 0.00 0.00 0.00 0.00 0.00
0.02 0.01 0.00 0.00 0.00 0.00 0.00 0.00 0.00 0.00 0.00 0.00 0.00 0.00 0.00 0.00 0.00 0.00 0.00 0.00 0.01 0.01 0.01 0.01 0.00 0.00 0.00 0.00 0.00 0.00 0.00 0.00 0.00 0.00 0.00 0.00 0.00 0.00 0.00 0.00 0.00 0.00 0.00 0.00
0.01 0.01 0.00 0.00 0.00 0.00 0.00 0.00 0.00 0.00 0.00 0.00 0.00 0.00 0.00 0.00 0.00 0.00 0.00 0.00 0.00 0.01 0.01 0.01 0.00 0.00 0.00 0.00 0.00 0.00 0.00 0.00 0.00 0.00 0.00 0.00 0.00 0.00 0.00 0.00 0.00 0.00 0.00 0.00
0.01 0.01 0.00 0.00 0.00 0.00 0.00 0.00 0.00 0.00 0.00 0.00 0.00 0.00 0.00 0.00 0.00 0.00 0.00 0.00 0.00 0.00 0.00 0.00 0.00 0.00 0.00 0.00 0.00 0.00 0.00 0.00 0.00 0.00 0.00 0.00 0.00 0.00 0.00 0.00 0.00 0.00 0.00 0.00
0.01 0.00 0.00 0.00 0.00 0.00 0.00 0.00 0.00 0.00 0.00 0.00 0.00 0.00 0.00 0.00 0.00 0.00 0.00 0.00 0.00 0.00 0.00 0.00 0.00 0.00 0.00 0.00 0.00 0.00 0.00 0.00 0.00 0.00 0.00 0.00 0.00 0.00 0.00 0.00 0.00 0.00 0.00 0.00
0.00 0.00 0.00 0.00 0.00 0.00 0.00 0.00 0.00 0.00 0.00 0.00 0.00 0.00 0.00 0.00 0.00 0.00 0.00 0.00 0.00 0.00 0.00 0.00 0.00 0.00 0.00 0.00 0.00 0.00 0.00 0.00 0.00 0.00 0.00 0.00 0.00 0.00 0.00 0.00 0.00 0.00 0.00 0.00
0.00 0.00 0.00 0.00 0.00 0.00 0.00 0.00 0.00 0.00 0.00 0.00 0.00 0.00 0.00 0.00 0.00 0.00 0.00 0.00 0.00 0.00 0.00 0.00 0.00 0.00 0.00 0.00 0.00 0.00 0.00 0.00 0.00 0.00 0.00 0.00 0.00 0.00 0.00 0.00 0.00 0.00 0.00 0.00
0.00 0.00 0.00 0.00 0.00 0.00 0.00 0.00 0.00 0.00 0.00 0.00 0.00 0.00 0.00 0.00 0.00 0.00 0.00 0.00 0.00 0.00 0.00 0.00 0.00 0.00 0.00 0.00 0.00 0.00 0.00 0.00 0.00 0.00 0.00 0.00 0.00 0.00 0.00 0.00 0.00 0.00 0.00 0.00
0.00 0.00 0.00 0.00 0.00 0.00 0.00 0.00 0.00 0.00 0.00 0.00 0.00 0.00 0.00 0.00 0.00 0.00 0.00 0.00 0.00 0.00 0.00 0.00 0.00 0.00 0.00 0.00 0.00 0.00 0.00 0.00 0.00 0.00 0.00 0.00 0.00 0.00 0.00 0.00 0.00 0.00 0.00 0.00
0.01 0.00 0.00 0.00 0.00 0.00 0.00 0.00 0.00 0.00 0.00 0.00 0.00 0.00 0.00 0.00 0.00 0.00 0.00 0.00 0.00 0.00 0.00 0.00 0.00 0.00 0.00 0.00 0.00 0.00 0.00 0.00 0.00 0.00 0.00 0.00 0.00 0.00 0.00 0.00 0.00 0.00 0.00 0.00
0.01 0.01 0.00 0.00 0.00 0.00 0.00 0.00 0.00 0.00 0.00 0.00 0.00 0.00 0.00 0.00 0.00 0.00 0.00 0.00 0.00 0.00 0.00 0.00 0.00 0.00 0.00 0.00 0.00 0.00 0.00 0.00 0.00 0.00 0.00 0.00 0.00 0.00 0.00 0.00 0.00 0.00 0.00 0.00
MSLP
1012.50 1012.31 1012.11 1011.92 1011.77 1011.68 1011.69 1011.80 1012.05 1012.43 1012.95 1013.59 1014.36 1015.22 1016.13 1017.06 1017.97 1018.83 1019.60 1020.25 1020.78 1021.18 1021.46 1021.64 1021.74 1021.78 1021.77 1021.74 1021.68 1021.60 1021.50 1021.38 1021.23 1021.07 1020.90 1020.74 1020.59 1020.47 1020.39 1020.35 1020.35 1020.40 1020.47 1020.58
1012.42 1012.18 1011.88 1011.55 1011.23 1010.99 1010.86 1010.89 1011.12 1011.56 1012.19 1013.00 1013.95 1014.99 1016.05 1017.10 1018.06 1018.92 1019.65 1020.24 1020.70 1021.04 1021.30 1021.49 1021.64 1021.76 1021.85 1021.91 1021.95 1021.95 1021.90 1021.80 1021.68 1021.52 1021.37 1021.23 1021.12 1021.06 1021.05 1021.09 1021.17 1021.28 1021.41 1021.54
1012.32 1012.04 1011.66 1011.24 1010.82 1010.47 1010.27 1010.27 1010.50 1010.99 1011.71 1012.63 1013.71 1014.85 1016.00 1017.08 1018.05 1018.88 1019.55 1020.07 1020.46 1020.76 1021.00 1021.21 1021.40 1021.59 1021.76 1021.91 1022.02 1022.07 1022.07 1022.00 1021.89 1021.76 1021.64 1021.54 1021.50 1021.53 1021.61 1021.76 1021.93 1022.13 1022.31 1022.47
1012.20 1011.88 1011.46 1010.98 1010.51 1010.13 1009.91 1009.91 1010.17 1010.70 1011.48 1012.47 1013.60 1014.78 1015.95 1017.02 1017.95 1018.72 1019.32 1019.77 1020.11 1020.38 1020.62 1020.85 1021.09 1021.34 1021.58 1021.80 1021.96 1022.05 1022.08 1022.03 1021.94 1021.84 1021.75 1021.71 1021.75 1021.86 1022.05 1022.30 1022.58 1022.85 1023.10 1023.29
1012.06 1011.69 1011.23 1010.73 1010.26 1009.89 1009.69 1009.72 1010.03 1010.60 1011.42 1012.43 1013.57 1014.75 1015.88 1016.91 1017.78 1018.48 1019.02 1019.43 1019.74 1020.00 1020.25 1020.52 1020.81 1021.12 1021.41 1021.68 1021.87 1021.99 1022.03 1022.00 1021.93 1021.85 1021.80 1021.81 1021.92 1022.11 1022.39 1022.73 1023.09 1023.43 1023.72 1023.94
1011.89 1011.45 1010.95 1010.45 1010.00 1009.68 1009.54 1009.63 1009.99 1010.60 1011.45 1012.47 1013.59 1014.72 1015.80 1016.76 1017.57 1018.22 1018.72 1019.10 1019.41 1019.70 1019.99 1020.30 1020.65 1021.00 1021.34 1021.64 1021.86 1021.99 1022.04 1022.02 1021.96 1021.89 1021.87 1021.93 1022.09 1022.34 1022.68 1023.07 1023.48 1023.87 1024.19 1024.42
1011.66 1011.14 1010.62 1010.12 1009.72 1009.47 1009.40 1009.58 1009.99 1010.65 1011.51 1012.52 1013.60 1014.69 1015.71 1016.61 1017.37 1017.99 1018.47 1018.86 1019.20 1019.53 1019.87 1020.24 1020.64 1021.04 1021.41 1021.73 1021.97 1022.11 1022.16 1022.15 1022.10 1022.05 1022.06 1022.14 1022.33 1022.61 1022.98 1023.39 1023.82 1024.20 1024.52 1024.75
1011.39 1010.79 1010.23 1009.76 1009.42 1009.24 1009.27 1009.53 1010.02 1010.71 1011.59 1012.58 1013.62 1014.65 1015.62 1016.47 1017.20 1017.81 1018.31 1018.74 1019.13 1019.51 1019.91 1020.34 1020.78 1021.22 1021.62 1021.95 1022.20 1022.35 1022.41 1022.41 1022.38 1022.36 1022.38 1022.49 1022.68 1022.97 1023.33 1023.73 1024.13 1024.50 1024.79 1024.99
1011.07 1010.41 1009.84 1009.40 1009.13 1009.05 1009.17 1009.52 1010.07 1010.80 1011.67 1012.65 1013.65 1014.64 1015.55 1016.38 1017.10 1017.71 1018.24 1018.72 1019.17 1019.61 1020.07 1020.55 1021.03 1021.48 1021.90 1022.24 1022.50 1022.66 1022.75 1022.77 1022.77 1022.78 1022.83 1022.95 1023.16 1023.43 1023.77 1024.13 1024.48 1024.79 1025.04 1025.20
1010.72 1010.03 1009.48 1009.10 1008.91 1008.93 1009.15 1009.57 1010.18 1010.94 1011.81 1012.75 1013.72 1014.66 1015.54 1016.34 1017.06 1017.69 1018.26 1018.78 1019.29 1019.79 1020.29 1020.80 1021.29 1021.76 1022.18 1022.53 1022.79 1022.97 1023.09 1023.15 1023.20 1023.25 1023.35 1023.50 1023.71 1023.97 1024.27 1024.58 1024.87 1025.12 1025.31 1025.43
1010.34 1009.67 1009.18 1008.89 1008.81 1008.93 1009.25 1009.75 1010.39 1011.16 1012.02 1012.93 1013.84 1014.73 1015.58 1016.36 1017.07 1017.72 1018.32 1018.89 1019.43 1019.97 1020.50 1021.02 1021.52 1021.98 1022.39 1022.73 1023.00 1023.21 1023.36 1023.48 1023.59 1023.71 1023.85 1024.04 1024.27 1024.52 1024.79 1025.06 1025.29 1025.48 1025.62 1025.69
1009.93 1009.35 1008.98 1008.81 1008.85 1009.09 1009.50 1010.05 1010.73 1011.50 1012.32 1013.18 1014.03 1014.87 1015.67 1016.42 1017.13 1017.79 1018.41 1019.00 1019.57 1020.12 1020.66 1021.17 1021.65 1022.08 1022.47 1022.81 1023.09 1023.32 1023.52 1023.70 1023.88 1024.07 1024.28 1024.51 1024.77 1025.03 1025.28 1025.51 1025.70 1025.84 1025.93 1025.97
1009.49 1009.06 1008.85 1008.84 1009.03 1009.39 1009.88 1010.49 1011.18 1011.93 1012.71 1013.50 1014.29 1015.06 1015.81 1016.52 1017.21 1017.87 1018.50 1019.10 1019.68 1020.23 1020.75 1021.24 1021.68 1022.09 1022.45 1022.77 1023.05 1023.31 1023.55 1023.80 1024.04 1024.31 1024.58 1024.87 1025.15 1025.43 1025.67 1025.88 1026.03 1026.14 1026.19 1026.21
1009.02 1008.80 1008.78 1008.96 1009.31 1009.79 1010.37 1011.02 1011.72 1012.43 1013.16 1013.88 1014.59 1015.29 1015.98 1016.65 1017.31 1017.96 1018.59 1019.19 1019.76 1020.30 1020.80 1021.25 1021.66 1022.03 1022.36 1022.66 1022.94 1023.22 1023.50 1023.79 1024.10 1024.42 1024.75 1025.09 1025.40 1025.69 1025.93 1026.13 1026.26 1026.34 1026.38 1026.39
1008.54 1008.55 1008.75 1009.13 1009.63 1010.24 1010.90 1011.59 1012.28 1012.96 1013.62 1014.27 1014.91 1015.54 1016.17 1016.80 1017.43 1018.06 1018.67 1019.27 1019.83 1020.36 1020.83 1021.25 1021.63 1021.96 1022.26 1022.54 1022.81 1023.09 1023.40 1023.72 1024.07 1024.44 1024.81 1025.18 1025.51 1025.81 1026.05 1026.23 1026.35 1026.42 1026.45 1026.45
1008.06 1008.31 1008.73 1009.30 1009.96 1010.68 1011.42 1012.14 1012.82 1013.47 1014.07 1014.65 1015.22 1015.79 1016.36 1016.95 1017.55 1018.16 1018.77 1019.36 1019.92 1020.43 1020.88 1021.28 1021.62 1021.92 1022.19 1022.45 1022.71 1022.99 1023.30 1023.64 1024.01 1024.39 1024.78 1025.16 1025.50 1025.79 1026.03 1026.19 1026.31 1026.36 1026.38 1026.38
1007.62 1008.08 1008.71 1009.44 1010.25 1011.07 1011.87 1012.61 1013.29 1013.91 1014.47 1015.00 1015.51 1016.02 1016.55 1017.10 1017.68 1018.28 1018.88 1019.46 1020.01 1020.51 1020.96 1021.34 1021.66 1021.94 1022.19 1022.42 1022.67 1022.93 1023.23 1023.56 1023.93 1024.31 1024.69 1025.06 1025.39 1025.67 1025.88 1026.04 1026.14 1026.19 1026.20 1026.21
1007.25 1007.88 1008.67 1009.55 1010.47 1011.37 1012.21 1012.98 1013.67 1014.26 1014.79 1015.28 1015.75 1016.22 1016.72 1017.25 1017.81 1018.40 1018.99 1019.57 1020.12 1020.62 1021.05 1021.42 1021.73 1021.99 1022.22 1022.43 1022.66 1022.90 1023.18 1023.49 1023.83 1024.19 1024.55 1024.89 1025.20 1025.45 1025.65 1025.79 1025.88 1025.93 1025.94 1025.95
1006.96 1007.72 1008.62 1009.60 1010.60 1011.55 1012.44 1013.23 1013.91 1014.51 1015.02 1015.49 1015.93 1016.39 1016.87 1017.38 1017.93 1018.51 1019.09 1019.67 1020.21 1020.70 1021.13 1021.49 1021.79 1022.03 1022.25 1022.44 1022.64 1022.86 1023.10 1023.38 1023.69 1024.01 1024.34 1024.65 1024.93 1025.17 1025.35 1025.49 1025.57 1025.61 1025.64 1025.65
1006.77 1007.61 1008.58 1009.61 1010.65 1011.64 1012.55 1013.35 1014.04 1014.64 1015.15 1015.61 1016.05 1016.50 1016.97 1017.48 1018.02 1018.58 1019.16 1019.72 1020.26 1020.74 1021.16 1021.51 1021.79 1022.03 1022.22 1022.39 1022.57 1022.75 1022.97 1023.21 1023.48 1023.77 1024.07 1024.35 1024.61 1024.83 1025.01 1025.14 1025.23 1025.29 1025.32 1025.35
1006.68 1007.55 1008.54 1009.59 1010.64 1011.63 1012.55 1013.36 1014.06 1014.66 1015.19 1015.66 1016.11 1016.56 1017.03 1017.53 1018.06 1018.62 1019.18 1019.73 1020.25 1020.71 1021.12 1021.45 1021.72 1021.94 1022.11 1022.26 1022.41 1022.57 1022.75 1022.96 1023.19 1023.45 1023.72 1023.98 1024.23 1024.45 1024.63 1024.78 1024.89 1024.97 1025.02 1025.07
1006.70 1007.55 1008.53 1009.55 1010.58 1011.56 1012.47 1013.27 1013.98 1014.60 1015.14 1015.63 1016.09 1016.55 1017.03 1017.53 1018.06 1018.60 1019.15 1019.68 1020.17 1020.62 1021.00 1021.31 1021.57 1021.76 1021.92 1022.05 1022.17 1022.30 1022.45 1022.63 1022.83 1023.06 1023.31 1023.56 1023.80 1024.03 1024.23 1024.40 1024.54 1024.65 1024.74 1024.81
1006.80 1007.62 1008.54 1009.52 1010.50 1011.45 1012.33 1013.12 1013.83 1014.46 1015.02 1015.53 1016.01 1016.49 1016.98 1017.49 1018.01 1018.54 1019.06 1019.57 1020.04 1020.46 1020.82 1021.11 1021.35 1021.52 1021.66 1021.77 1021.87 1021.97 1022.09 1022.24 1022.42 1022.63 1022.86 1023.10 1023.34 1023.58 1023.80 1024.00 1024.18 1024.32 1024.45 1024.56
1006.98 1007.74 1008.59 1009.50 1010.42 1011.32 1012.16 1012.93 1013.63 1014.27 1014.84 1015.37 1015.88 1016.38 1016.88 1017.39 1017.90 1018.42 1018.93 1019.41 1019.86 1020.25 1020.59 1020.87 1021.09 1021.25 1021.37 1021.47 1021.55 1021.63 1021.73 1021.85 1022.01 1022.19 1022.40 1022.63 1022.87 1023.12 1023.36 1023.59 1023.79 1023.97 1024.14 1024.28
1007.21 1007.90 1008.68 1009.51 1010.35 1011.18 1011.98 1012.72 1013.41 1014.04 1014.63 1015.18 1015.70 1016.22 1016.73 1017.24 1017.75 1018.25 1018.75 1019.21 1019.64 1020.02 1020.34 1020.61 1020.82 1020.97 1021.09 1021.18 1021.24 1021.31 1021.39 1021.49 1021.62 1021.78 1021.97 1022.18 1022.41 1022.65 1022.90 1023.14 1023.36 1023.57 1023.76 1023.93
1007.47 1008.08 1008.78 1009.52 1010.28 1011.05 1011.79 1012.50 1013.17 1013.80 1014.39 1014.95 1015.49 1016.01 1016.53 1017.04 1017.55 1018.04 1018.52 1018.97 1019.38 1019.75 1020.06 1020.32 1020.54 1020.70 1020.82 1020.90 1020.97 1021.03 1021.10 1021.18 1021.28 1021.41 1021.57 1021.75 1021.96 1022.19 1022.42 1022.65 1022.88 1023.11 1023.31 1023.50
1007.70 1008.24 1008.84 1009.50 1010.19 1010.89 1011.58 1012.25 1012.90 1013.52 1014.11 1014.68 1015.23 1015.76 1016.28 1016.79 1017.29 1017.77 1018.23 1018.66 1019.06 1019.42 1019.74 1020.00 1020.22 1020.40 1020.53 1020.63 1020.71 1020.77 1020.83 1020.89 1020.98 1021.07 1021.20 1021.35 1021.52 1021.71 1021.91 1022.13 1022.34 1022.56 1022.77 1022.97
Thickness
5667 5673 5673 5671 5673 5673 5665 5657 5646 5647 5641 5637 5632 5624 5614 5605 5598 5591 5584 5579 5574 5568 5565 5563 5562 5562 5562 5562 5563 5564 5565 5566 5566 5568 5569 5570 5571 5571 5572 5572 5572 5572 5572 5572
5661 5673 5673 5670 5675 5673 5671 5666 5657 5648 5640 5639 5629 5619 5609 5601 5594 5586 5579 5573 5568 5563 5559 5557 5555 5554 5554 5553 5553 5555 5556 5556 5557 5558 5558 5559 5559 5559 5560 5560 5560 5560 5560 5560
5644 5660 5663 5654 5664 5666 5667 5667 5657 5644 5639 5631 5620 5614 5605 5598 5590 5582 5574 5567 5561 5556 5553 5549 5547 5546 5544 5544 5544 5545 5545 5546 5546 5547 5548 5548 5549 5548 5548 5548 5548 5547 5547 5548
5637 5645 5640 5654 5670 5670 5664 5661 5660 5651 5640 5631 5620 5609 5600 5593 5585 5576 5568 5561 5555 5549 5545 5542 5539 5537 5536 5536 5535 5536 5536 5537 5537 5538 5538 5538 5538 5537 5537 5537 5537 5537 5537 5538
5631 5633 5640 5657 5664 5664 5656 5648 5651 5642 5631 5620 5609 5598 5588 5584 5578 5570 5561 5554 5547 5543 5538 5534 5532 5530 5529 5527 5527 5527 5527 5528 5528 5529 5529 5528 5527 5527 5527 5527 5527 5527 5528 5529
5631 5631 5632 5651 5666 5670 5657 5638 5645 5638 5626 5614 5605 5593 5584 5576 5569 5560 5552 5545 5540 5535 5531 5527 5524 5523 5521 5519 5519 5519 5519 5520 5520 5520 5520 5519 5519 5519 5519 5519 5519 5519 5519 5519
5630 5628 5639 5658 5667 5664 5640 5639 5643 5634 5624 5613 5604 5596 5584 5572 5561 5553 5545 5538 5533 5528 5523 5520 5517 5516 5514 5512 5512 5513 5513 5513 5512 5512 5512 5512 5512 5511 5511 5511 5511 5510 5510 5510
5627 5625 5634 5660 5659 5650 5646 5647 5640 5628 5618 5607 5597 5587 5575 5564 5554 5545 5538 5532 5526 5521 5516 5513 5512 5510 5508 5506 5507 5507 5507 5506 5505 5505 5506 5506 5505 5504 5504 5504 5503 5502 5501 5501
5628 5633 5646 5655 5655 5654 5650 5640 5631 5621 5611 5601 5589 5578 5568 5557 5548 5540 5533 5526 5521 5516 5511 5508 5507 5505 5502 5502 5502 5501 5500 5499 5499 5499 5499 5499 5498 5497 5497 5496 5495 5494 5494 5493
5631 5642 5648 5652 5652 5648 5645 5637 5628 5617 5606 5595 5584 5572 5561 5551 5542 5534 5527 5521 5516 5511 5507 5504 5502 5501 5499 5499 5498 5496 5494 5493 5493 5492 5491 5491 5491 5491 5490 5489 5489 5489 5488 5486
5632 5641 5644 5644 5644 5641 5635 5629 5619 5609 5599 5590 5579 5567 5557 5547 5538 5530 5524 5517 5512 5508 5504 5501 5499 5497 5496 5495 5494 5491 5490 5488 5487 5486 5485 5483 5483 5483 5484 5485 5487 5486 5484 5483
5631 5640 5638 5635 5638 5636 5628 5620 5612 5603 5591 5582 5574 5563 5553 5543 5535 5527 5520 5515 5510 5506 5502 5499 5497 5495 5493 5492 5490 5487 5485 5483 5482 5480 5479 5479 5478 5477 5479 5482 5483 5484 5483 5482
5639 5644 5642 5639 5635 5631 5623 5616 5608 5599 5589 5578 5568 5560 5551 5540 5532 5525 5519 5514 5509 5505 5501 5498 5495 5493 5491 5490 5488 5486 5483 5481 5479 5478 5477 5476 5475 5475 5474 5475 5477 5478 5478 5478
5646 5644 5637 5635 5631 5627 5620 5612 5604 5594 5584 5575 5566 5557 5548 5539 5531 5525 5519 5514 5510 5505 5501 5497 5494 5492 5491 5489 5487 5484 5482 5481 5479 5477 5477 5475 5474 5473 5473 5473 5472 5471 5473 5474
5646 5646 5640 5635 5629 5623 5616 5608 5598 5588 5579 5571 5563 5555 5547 5538 5531 5525 5520 5515 5510 5505 5501 5497 5494 5491 5490 5488 5486 5484 5482 5481 5480 5478 5477 5475 5474 5473 5472 5472 5471 5470 5470 5471
5644 5642 5638 5633 5626 5619 5612 5604 5595 5586 5579 5570 5562 5554 5547 5539 5532 5526 5520 5515 5509 5504 5501 5498 5494 5492 5491 5489 5487 5485 5483 5483 5481 5479 5477 5476 5475 5474 5472 5471 5470 5470 5469 5470
5639 5635 5633 5629 5624 5618 5612 5605 5597 5588 5580 5571 5563 5556 5548 5540 5532 5526 5521 5517 5512 5507 5503 5500 5496 5495 5493 5491 5488 5486 5485 5484 5484 5481 5479 5478 5477 5476 5475 5473 5472 5471 5471 5472
5646 5642 5639 5634 5627 5619 5613 5606 5599 5590 5582 5574 5566 5558 5550 5542 5534 5528 5523 5518 5513 5508 5505 5503 5500 5498 5495 5493 5491 5488 5487 5485 5484 5483 5482 5481 5480 5479 5478 5477 5476 5475 5474 5475
5648 5644 5640 5635 5630 5623 5616 5608 5600 5593 5585 5577 5569 5560 5552 5545 5538 5532 5526 5520 5515 5510 5508 5507 5504 5501 5498 5496 5494 5492 5490 5488 5487 5485 5484 5484 5483 5482 5481 5480 5479 5478 5478 5477
5651 5647 5643 5637 5632 5625 5618 5611 5603 5595 5588 5580 5571 5562 5554 5547 5541 5535 5529 5524 5520 5517 5514 5511 5508 5505 5503 5501 5499 5496 5494 5492 5490 5488 5487 5486 5486 5485 5485 5484 5483 5483 5482 5481
5653 5650 5645 5639 5633 5627 5621 5614 5606 5598 5591 5584 5575 5567 5559 5552 5546 5540 5533 5528 5526 5524 5521 5517 5514 5510 5508 5506 5504 5501 5499 5498 5496 5493 5492 5491 5490 5490 5489 5489 5488 5488 5487 5486
5654 5651 5646 5640 5634 5627 5622 5616 5609 5601 5594 5587 5580 5573 5565 5557 5552 5546 5541 5537 5533 5531 5527 5523 5520 5518 5515 5513 5510 5508 5506 5504 5502 5500 5498 5497 5496 5495 5495 5495 5494 5494 5493 5492
5655 5652 5647 5642 5636 5629 5623 5617 5612 5605 5598 5592 5585 5579 5572 5565 5559 5553 5546 5544 5541 5537 5534 5530 5528 5525 5522 5519 5517 5515 5514 5512 5509 5508 5506 5505 5504 5503 5502 5502 5501 5500 5499 5497
5653 5651 5647 5642 5637 5630 5623 5618 5614 5609 5602 5597 5591 5585 5579 5571 5565 5562 5558 5554 5549 5545 5541 5538 5535 5532 5529 5526 5524 5522 5521 5520 5518 5517 5515 5513 5512 5511 5510 5509 5507 5506 5505 5504
5651 5649 5646 5642 5637 5632 5626 5621 5615 5610 5605 5600 5595 5590 5586 5581 5575 5570 5566 5561 5557 5552 5548 5545 5543 5539 5536 5533 5532 5530 5529 5528 5527 5525 5523 5521 5520 5519 5517 5516 5515 5513 5512 5511
5649 5648 5647 5645 5641 5635 5630 5625 5619 5614 5609 5604 5599 5596 5591 5587 5583 5578 5573 5569 5564 5559 5555 5552 5549 5546 5543 5541 5540 5539 5538 5537 5535 5534 5532 5531 5529 5527 5526 5524 5523 5520 5519 5518
5646 5645 5642 5640 5639 5636 5633 5628 5623 5618 5615 5610 5605 5601 5597 5593 5589 5585 5580 5575 5570 5566 5563 5559 5557 5554 5551 5549 5548 5547 5546 5546 5544 5542 5541 5539 5538 5536 5534 5532 5530 5528 5527 5524